Location: Barcelona
(41.3829°N, 2.1774°E)
Time: 12:05:13
(UTC+00:00)

ISS - Pass Details

Date: 26 November 2023
Orbit: 415 x 417 km, 51.6° (Epoch: 08 December)

Event Time Altitude Azimuth Distance (km) Brightness Sun altitude
Rises 16:25:17 0° 278° (W) 2,356 1.1 -0.9°
Reaches altitude 10° 16:27:49 10° 297° (WNW) 1,495 -0.4 -1.4°
Maximum altitude 16:30:17 19° 345° (NNW) 1,075 -1.8 -1.8°
Drops below altitude 10° 16:32:45 10° 32° (NNE) 1,499 -1.5 -2.2°
Enters shadow 16:34:40 - 48° (NE) 2,136 -0.8 -2.5°
